TimeMST,TemperatureF,Dew PointF,Humidity,Sea Level PressureIn,VisibilityMPH,Wind Direction,Wind SpeedMPH,Gust SpeedMPH,PrecipitationIn,Events,Conditions,WindDirDegrees,DateUTC
12:53 AM,36.0,33.1,89,29.85,10.0,NNW,17.3,24.2,N/A,,Overcast,330,2012-11-22 07:53:00
1:31 AM,35.6,32.0,87,29.93,7.0,NW,25.3,32.2,0.00,Snow,Light Snow,310,2012-11-22 08:31:00
1:53 AM,33.1,32.0,96,29.91,3.0,NW,16.1,-,0.00,Snow,Light Snow,310,2012-11-22 08:53:00
2:09 AM,33.8,32.0,93,29.96,3.0,NW,18.4,-,0.00,Snow,Light Snow,320,2012-11-22 09:09:00
2:15 AM,33.8,32.0,93,29.95,1.8,NW,15.0,-,0.01,Snow,Light Snow,320,2012-11-22 09:15:00
2:26 AM,33.8,32.0,93,29.97,0.8,NW,16.1,24.2,0.02,Snow,Light Snow,310,2012-11-22 09:26:00
2:36 AM,32.0,32.0,100,29.96,1.0,NW,21.9,29.9,0.03,Snow,Light Snow,310,2012-11-22 09:36:00
2:53 AM,32.0,30.9,96,29.96,1.0,NW,18.4,28.8,0.03,Snow,Light Snow,310,2012-11-22 09:53:00
3:20 AM,32.0,30.2,93,30.01,0.8,WNW,16.1,-,0.02,Snow,Light Snow,300,2012-11-22 10:20:00
3:47 AM,30.2,30.2,100,30.01,1.0,WNW,11.5,-,0.04,Snow,Light Snow,300,2012-11-22 10:47:00
3:53 AM,30.9,30.0,96,29.98,1.5,WNW,8.1,17.3,0.04,Snow,Light Snow,290,2012-11-22 10:53:00
3:57 AM,30.2,30.2,100,29.99,3.0,West,5.8,-,0.00,Snow,Light Snow,260,2012-11-22 10:57:00
4:17 AM,30.2,28.4,93,30.00,10.0,WNW,6.9,-,0.00,,Overcast,290,2012-11-22 11:17:00
4:53 AM,32.0,27.0,82,30.00,10.0,West,13.8,-,0.00,,Overcast,280,2012-11-22 11:53:00
5:53 AM,27.0,23.0,85,30.06,10.0,West,9.2,-,N/A,,Clear,280,2012-11-22 12:53:00
6:53 AM,23.0,19.9,88,30.10,10.0,West,9.2,-,N/A,,Clear,280,2012-11-22 13:53:00
7:53 AM,26.1,19.9,78,30.12,10.0,West,8.1,-,N/A,,Partly Cloudy,270,2012-11-22 14:53:00
8:53 AM,30.9,24.1,76,30.18,10.0,West,10.4,-,N/A,,Mostly Cloudy,280,2012-11-22 15:53:00
9:53 AM,32.0,23.0,69,30.22,10.0,West,15.0,-,N/A,,Overcast,270,2012-11-22 16:53:00
10:53 AM,34.0,25.0,70,30.25,10.0,WNW,12.7,-,N/A,,Clear,290,2012-11-22 17:53:00
11:53 AM,36.0,24.1,62,30.25,10.0,NW,23.0,-,N/A,,Mostly Cloudy,320,2012-11-22 18:53:00
12:53 PM,37.9,24.1,57,30.25,10.0,WNW,18.4,26.5,N/A,,Clear,300,2012-11-22 19:53:00
1:53 PM,37.9,21.9,53,30.29,10.0,NW,23.0,29.9,N/A,,Clear,320,2012-11-22 20:53:00
2:53 PM,37.9,19.9,48,30.32,10.0,NW,18.4,-,N/A,,Clear,310,2012-11-22 21:53:00
3:53 PM,35.1,19.9,54,30.37,10.0,NW,18.4,24.2,N/A,,Clear,320,2012-11-22 22:53:00
4:53 PM,30.9,19.0,61,30.42,10.0,NNW,10.4,-,N/A,,Clear,330,2012-11-22 23:53:00
5:53 PM,25.0,19.9,81,30.50,10.0,NW,5.8,-,N/A,,Clear,320,2012-11-23 00:53:00
6:53 PM,25.0,19.9,81,30.53,10.0,NW,10.4,-,N/A,,Clear,320,2012-11-23 01:53:00
7:53 PM,23.0,19.0,85,30.56,10.0,WNW,9.2,-,N/A,,Clear,290,2012-11-23 02:53:00
8:53 PM,21.0,18.0,88,30.57,10.0,Variable,3.5,-,N/A,,Clear,0,2012-11-23 03:53:00
9:53 PM,16.0,15.1,96,30.59,10.0,SE,3.5,-,N/A,,Clear,140,2012-11-23 04:53:00
10:53 PM,10.9,9.0,92,30.60,10.0,SSW,3.5,-,N/A,,Clear,210,2012-11-23 05:53:00
11:53 PM,10.9,9.0,92,30.59,10.0,SW,4.6,-,N/A,,Clear,230,2012-11-23 06:53:00